Ironwood, MI

2:35 PM CST on December 02, 2016 (GMT -0600)
Gogebic-Iron County

Weather History for KIWD - August, 2014

Change the Weather History Date:

Thursday, August 21, 2014

  Actual Average Record
Temperature  
Mean Temperature 63 °F -  
Max Temperature 73 °F 72 °F 82 °F (1996)
Min Temperature 53 °F 52 °F 41 °F (2004)
Degree Days  
Heating Degree Days 2    
Growing Degree Days 13 (Base 50)    
Moisture  
Dew Point 62 °F    
Average Humidity 88    
Maximum Humidity 100    
Minimum Humidity 78    
Precipitation  
Precipitation 0.00 in - - ()
Sea Level Pressure  
Sea Level Pressure 29.90 in    
Wind  
Wind Speed 4 mph (ESE)    
Max Wind Speed 12 mph    
Max Gust Speed 16 mph    
Visibility 8 miles    
Events      
Averages and records for this station are not official NWS values.
T = Trace of Precipitation, MM = Missing Value Source: NWS Daily Summary

Daily Weather History Graph

Daily Weather History Graph

Search for Another Location

Airport or City:

Trip Planner

Search our weather history database for the weather conditions in past years. The results will help you decide how hot, cold, wet, or windy it might be!

Date:

Astronomy

Aug. 21, 2014 Rise Set
Actual Time 6:06 AM CDT 7:59 PM CDT
Civil Twilight 5:34 AM CDT 8:32 PM CDT
Nautical Twilight 4:54 AM CDT 9:11 PM CDT
Astronomical Twilight 4:10 AM CDT 9:54 PM CDT
Moon 2:30 AM CDT (8/21) 5:33 PM CDT (8/21)
Length of Visible Light 14h 57m
Length of Day
13h 53m
Waning Crescent, 13% of the Moon is Illuminated
Aug 21
Waning Crescent
Aug 25
New
Sep 2
First Quarter
Sep 8
Full
Sep 15
Last Quarter

Hourly Weather History & Observations

Time (CDT) Temp. Dew Point Humidity Pressure Visibility Wind Dir Wind Speed Gust Speed Precip Events Conditions
12:15 AM 57.2 °F 57.2 °F 100% 29.95 in 2.5 mi Calm Calm - N/A   Clear
12:35 AM 53.6 °F 53.6 °F 100% 29.94 in 0.5 mi Calm Calm - N/A   Unknown
12:55 AM 53.6 °F 53.6 °F 100% 29.94 in 9.0 mi Calm Calm - N/A   Clear
1:15 AM 55.4 °F 55.4 °F 100% 29.94 in 10.0 mi Calm Calm - N/A   Clear
1:35 AM 53.6 °F 53.6 °F 100% 29.94 in 0.5 mi Calm Calm - N/A   Unknown
1:55 AM 53.6 °F 53.6 °F 100% 29.94 in 0.8 mi Calm Calm - N/A   Overcast
2:15 AM 55.4 °F 55.4 °F 100% 29.94 in 10.0 mi Calm Calm - N/A   Overcast
2:35 AM 55.4 °F 55.4 °F 100% 29.93 in 10.0 mi Calm Calm - N/A   Overcast
2:55 AM 53.6 °F 53.6 °F 100% 29.92 in 10.0 mi East 3.5 mph - N/A   Scattered Clouds
3:15 AM 55.4 °F 53.6 °F 94% 29.92 in 7.0 mi ENE 4.6 mph - N/A   Mostly Cloudy
3:35 AM 55.4 °F 55.4 °F 100% 29.92 in 5.0 mi Calm Calm - N/A   Partly Cloudy
3:55 AM 53.6 °F 53.6 °F 100% 29.93 in 0.5 mi Calm Calm - N/A   Unknown
4:15 AM 53.6 °F 53.6 °F 100% 29.92 in 1.2 mi East 3.5 mph - N/A   Clear
4:35 AM 53.6 °F 51.8 °F 94% 29.91 in 0.8 mi East 3.5 mph - N/A   Mostly Cloudy
4:55 AM 53.6 °F 53.6 °F 100% 29.91 in 2.0 mi East 4.6 mph - N/A   Clear
5:15 AM 55.4 °F 55.4 °F 100% 29.92 in 10.0 mi East 3.5 mph - N/A   Clear
5:35 AM 55.4 °F 55.4 °F 100% 29.93 in 5.0 mi East 3.5 mph - N/A   Clear
5:55 AM 53.6 °F 53.6 °F 100% 29.93 in 0.8 mi Calm Calm - N/A   Mostly Cloudy
9:15 AM 64.4 °F 62.6 °F 94% 29.92 in 10.0 mi SE 4.6 mph - N/A   Overcast
9:55 AM 66.2 °F 64.4 °F 94% 29.90 in 10.0 mi East 6.9 mph - N/A   Mostly Cloudy
10:15 AM 68.0 °F 64.4 °F 88% 29.90 in 10.0 mi East 10.4 mph - N/A   Mostly Cloudy
10:35 AM 69.8 °F 64.4 °F 83% 29.88 in 10.0 mi East 11.5 mph - N/A   Scattered Clouds
10:55 AM 69.8 °F 64.4 °F 83% 29.89 in 10.0 mi East 10.4 mph - N/A   Partly Cloudy
11:15 AM 71.6 °F 64.4 °F 78% 29.89 in 10.0 mi ESE 8.1 mph - N/A   Mostly Cloudy
11:35 AM 71.6 °F 64.4 °F 78% 29.89 in 10.0 mi SE 6.9 mph - N/A   Mostly Cloudy
11:55 AM 71.6 °F 64.4 °F 78% 29.90 in 10.0 mi SE 8.1 mph - N/A   Overcast
12:15 PM 69.8 °F 64.4 °F 83% 29.89 in 10.0 mi SE 6.9 mph - N/A   Overcast
12:35 PM 71.6 °F 64.4 °F 78% 29.89 in 10.0 mi ESE 5.8 mph - N/A   Overcast
12:55 PM 71.6 °F 66.2 °F 83% 29.88 in 10.0 mi ESE 8.1 mph - N/A   Overcast
1:15 PM 73.4 °F 66.2 °F 78% 29.88 in 10.0 mi ESE 5.8 mph - N/A   Mostly Cloudy
1:35 PM 73.4 °F 66.2 °F 78% 29.88 in 10.0 mi SE 9.2 mph 16.1 mph N/A   Overcast
1:55 PM 73.4 °F 66.2 °F 78% 29.88 in 10.0 mi SSE 10.4 mph - N/A   Mostly Cloudy
2:15 PM 73.4 °F 66.2 °F 78% 29.88 in 10.0 mi SE 9.2 mph - N/A   Overcast
2:35 PM 73.4 °F 66.2 °F 78% 29.88 in 10.0 mi SSE 6.9 mph - N/A   Overcast
2:55 PM 73.4 °F 66.2 °F 78% 29.88 in 10.0 mi SE 6.9 mph - N/A   Overcast
3:15 PM 73.4 °F 66.2 °F 78% 29.88 in 10.0 mi ESE 3.5 mph - N/A   Overcast
3:35 PM 73.4 °F 66.2 °F 78% 29.88 in 10.0 mi ESE 5.8 mph - N/A   Overcast
3:55 PM 73.4 °F 66.2 °F 78% 29.87 in 10.0 mi SE 6.9 mph - N/A   Overcast
4:15 PM 73.4 °F 66.2 °F 78% 29.88 in 10.0 mi SE 6.9 mph - N/A   Overcast
4:35 PM 71.6 °F 66.2 °F 83% 29.88 in 10.0 mi SSE 5.8 mph - N/A   Overcast
4:55 PM 71.6 °F 66.2 °F 83% 29.88 in 10.0 mi SSE 4.6 mph - N/A   Overcast
5:15 PM 71.6 °F 66.2 °F 83% 29.88 in 10.0 mi ESE 8.1 mph - N/A   Overcast
5:35 PM 71.6 °F 66.2 °F 83% 29.88 in 8.0 mi SE 5.8 mph - N/A   Overcast
5:55 PM 71.6 °F 66.2 °F 83% 29.88 in 10.0 mi SE 6.9 mph - N/A   Overcast
6:15 PM 71.6 °F 66.2 °F 83% 29.88 in 10.0 mi SE 5.8 mph - N/A   Overcast
6:35 PM 71.6 °F 66.2 °F 83% 29.88 in 10.0 mi SSE 6.9 mph - N/A   Overcast
6:55 PM 71.6 °F 66.2 °F 83% 29.88 in 10.0 mi SE 8.1 mph - N/A   Overcast
7:15 PM 71.6 °F 66.2 °F 83% 29.88 in 10.0 mi SE 8.1 mph - N/A   Overcast
7:35 PM 71.6 °F 66.2 °F 83% 29.89 in 10.0 mi ESE 4.6 mph - N/A   Overcast
7:55 PM 71.6 °F 66.2 °F 83% 29.89 in 10.0 mi SE 5.8 mph - N/A   Mostly Cloudy
8:15 PM 69.8 °F 66.2 °F 88% 29.89 in 10.0 mi SE 5.8 mph - N/A   Mostly Cloudy
8:35 PM 69.8 °F 66.2 °F 88% 29.89 in 10.0 mi SE 6.9 mph - N/A   Overcast
8:55 PM 69.8 °F 66.2 °F 88% 29.89 in 10.0 mi SSE 6.9 mph - N/A   Mostly Cloudy
9:15 PM 69.8 °F 66.2 °F 88% 29.90 in 10.0 mi ESE 4.6 mph - N/A   Partly Cloudy
9:35 PM 69.8 °F 66.2 °F 88% 29.90 in 10.0 mi Calm Calm - N/A   Mostly Cloudy
9:55 PM 69.8 °F 66.2 °F 88% 29.90 in 10.0 mi East 5.8 mph - N/A   Overcast
10:15 PM 68.0 °F 66.2 °F 94% 29.90 in 10.0 mi ESE 4.6 mph - N/A   Overcast
10:35 PM 68.0 °F 66.2 °F 94% 29.90 in 10.0 mi ESE 5.8 mph - N/A   Overcast
10:55 PM 68.0 °F 66.2 °F 94% 29.90 in 10.0 mi ESE 6.9 mph - N/A   Overcast
11:15 PM 68.0 °F 66.2 °F 94% 29.90 in 10.0 mi SE 6.9 mph - N/A   Overcast
11:35 PM 68.0 °F 64.4 °F 88% 29.89 in 10.0 mi ESE 4.6 mph - N/A   Overcast
11:55 PM 68.0 °F 64.4 °F 88% 29.90 in 10.0 mi ESE 4.6 mph - N/A   Mostly Cloudy